Simultaneous Nadir Overpasses (SNOs) Predictions

Prediction of SNOs between AQUA and NOAA-19 Satellite Orbit:

Table of predicted SNOs for the next 14.0 days since TLE Epoch: 9/30/2023
Index Date (AQUA) Time (AQUA) Lat,Lon (AQUA) SZA (AQUA ) Date (NOAA-19) Time (NOAA-19) Lat,Lon (NOAA-19) SZA (NOAA-19 ) Distance(km) Time Diff (sec)
1 10/01/2023 09:32:36 -76.17,-150.62 100.70 10/01/2023 09:31:22 -76.16,-150.50 100.71 3.56 74
2 10/01/2023 10:22:02 76.23, 16.85 79.38 10/01/2023 10:22:17 76.22, 17.00 79.37 4.00 15
3 10/03/2023 14:14:00 -75.74, 140.37 100.31 10/03/2023 14:12:54 -75.69, 137.53 100.30 78.05 66
4 10/03/2023 15:03:34 76.18, -53.37 80.17 10/03/2023 15:03:40 76.18, -53.45 80.17 2.43 6
5 10/05/2023 19:45:06 76.19,-123.75 81.02 10/05/2023 19:45:02 76.16,-123.78 81.00 3.15 4
6 10/08/2023 00:26:36 76.15, 166.03 81.82 10/08/2023 00:26:23 76.19, 166.03 81.86 3.90 13
7 10/08/2023 01:16:08 -76.58, -27.73 97.72 10/08/2023 01:17:15 -76.57, -25.23 97.77 64.66 67
8 10/10/2023 05:08:06 76.16, 95.65 82.66 10/10/2023 05:07:45 76.16, 95.64 82.66 0.65 21
9 10/10/2023 05:57:30 -76.20, -96.83 97.29 10/10/2023 05:58:44 -76.21, -96.91 97.28 2.32 74
10 10/12/2023 09:49:35 76.17, 25.27 83.50 10/12/2023 09:49:06 76.16, 25.38 83.49 3.33 29



Historial Predications of SNOs between AQUA and NOAA-19
